Home > Weather > Kunming > Past weeks

Flag for China Past Weather in Kunming, Yunnan, China — Yesterday and Last 2 Weeks

Now
59 °F

Passing clouds.


Feels Like: 58 °F
Forecast: 59 / 70 °F
Wind: 8 mph from Southwest

Location: Kunming Airport

Current Time: Jul 24, 2016 at 3:27:55 AM

Latest Report: Jul 24, 2016 at 3:00 AM


Visibility: N/A

Pressure: 30.12 "Hg (24.02 "Hg at 1909m altitude)

Humidity: 100%

Dew Point: 59 °F

Location of KunmingLocation

Past Weather in Kunming — Graph

°F

Kunming Temperature Yesterday

Maximum temperature yesterday: 73 °F (at 4:00 PM)
Minimum temperature yesterday: 63 °F (at 12:00 AM)
Average temperature yesterday: 65 °F

High & Low Weather Summary for the Past Weeks

 TemperatureHumidityPressure
High82 °F (Jul 9, 5:00 PM)100% (Jul 11, 6:00 AM)30.15 "Hg (Jul 11, 6:00 AM)
Low59 °F (Jul 15, 3:00 AM)40% (Jul 10, 4:00 PM)29.86 "Hg (Jul 10, 5:00 PM)
Average67 °F84%30.03 "Hg
* Reported Jul 9 2:00 AM — Jul 24 2:00 AM, Kunming, Weather by CustomWeather, © 2016

Note: Actual official high and low records may vary slightly from our data, if they occured in-between our weather recording intervals... More about our weather records

Advertising

Kunming Weather History for the Previous 24 Hours

Scroll right to see more
 ConditionsComfort  
Time TempWeatherWind HumidityBarometerVisibility
2:00 AM
Sun, Jul 24
59 °FPassing clouds.8 mph94%30.12 "HgN/A
1:00 AM61 °FPassing clouds.6 mph88%30.12 "HgN/A
12:00 AM61 °FPassing clouds.6 mph88%30.15 "HgN/A
11:00 PM
Sat, Jul 23
63 °FClear.10 mph83%30.15 "Hg10 mi
10:00 PM63 °FPassing clouds.15 mph83%30.12 "HgN/A
9:00 PM63 °FPassing clouds.13 mph83%30.12 "HgN/A
8:00 PM63 °FPassing clouds.15 mph88%30.09 "HgN/A
7:00 PM64 °FScattered clouds.13 mph83%30.09 "HgN/A
6:00 PM66 °FBroken clouds.17 mph83%30.09 "HgN/A
5:00 PM70 °FScattered clouds.22 mph69%30.09 "HgN/A
4:00 PM73 °FScattered clouds.17 mph65%30.09 "HgN/A
3:00 PM70 °FBroken clouds.17 mph73%30.09 "HgN/A
2:00 PM72 °FSprinkles. Broken clouds.20 mph69%30.12 "HgN/A
1:00 PM70 °FBroken clouds.15 mph78%30.12 "HgN/A
12:00 PM68 °FBroken clouds.15 mph78%30.15 "HgN/A
11:00 AM68 °FBroken clouds.17 mph78%30.15 "HgN/A
10:00 AM66 °FBroken clouds.15 mph83%30.15 "HgN/A
9:00 AM64 °FPartly sunny.13 mph88%30.12 "HgN/A
8:00 AM63 °FMore clouds than sun.13 mph94%30.12 "HgN/A
7:00 AM63 °FMore clouds than sun.10 mph94%30.09 "HgN/A
6:00 AM63 °FMostly cloudy.13 mph94%30.09 "HgN/A
5:00 AM63 °FMostly cloudy.13 mph94%30.09 "HgN/A
4:00 AM63 °FMostly cloudy.13 mph94%30.09 "HgN/A
3:00 AM63 °FMostly cloudy.10 mph94%30.09 "HgN/A
Weather by CustomWeather, © 2016

See weather overviewHow to use our weather pages